• en France
  • Liste des pays
  • À 7 jours
  • Température de l'eau
  • Carte satellitaire
  • Carte météo
  • Widgets météo
  • user-avatar
    Se connecter

    Météo par heure à Impfondo

    Ce jour, 20 Août, Lundi

    Heure Température Précipitation Vent Pression Humidité
    00:00 +24°C° 0,2 mm 1 m/s 732 mmHg 92%
    01:00 +24°C° 0,2 mm 1 m/s 732 mmHg 94%
    02:00 +24°C° 0,1 mm 1 m/s 732 mmHg 95%
    03:00 +24°C° 0,1 mm 1 m/s 732 mmHg 96%
    04:00 +23°C° 0,1 mm 1 m/s 732 mmHg 96%
    05:00 +24°C° 0 mm 1 m/s 732 mmHg 94%
    06:00 +24°C° 0 mm 1 m/s 732 mmHg 92%
    07:00 +24°C° 0 mm 1 m/s 733 mmHg 90%
    08:00 +27°C° 0 mm 2 m/s 733 mmHg 80%
    09:00 +29°C° 0 mm 2 m/s 733 mmHg 69%
    10:00 +31°C° 0 mm 2 m/s 734 mmHg 59%
    11:00 +31°C° 0,4 mm 2 m/s 733 mmHg 58%
    12:00 +32°C° 0,4 mm 2 m/s 732 mmHg 57%
    13:00 +34°C° 0,4 mm 2 m/s 731 mmHg 56%
    14:00 +33°C° 0,1 mm 1 m/s 731 mmHg 56%
    15:00 +32°C° 0,1 mm 1 m/s 730 mmHg 56%
    16:00 +32°C° 0,1 mm 1 m/s 730 mmHg 56%
    17:00 +28°C° 0,3 mm 0 m/s 730 mmHg 63%
    18:00 +27°C° 0,3 mm 0 m/s 730 mmHg 70%
    19:00 +25°C° 0,3 mm 0 m/s 731 mmHg 77%
    20:00 +24°C° 0,8 mm 0 m/s 731 mmHg 82%
    21:00 +24°C° 0,8 mm 0 m/s 732 mmHg 87%
    22:00 +23°C° 0,8 mm 0 m/s 733 mmHg 92%
    23:00 +23°C° 0,5 mm 0 m/s 732 mmHg 93%

    Demain, 21 Août, Mardi

    Heure Température Précipitation Vent Pression Humidité
    00:00 +22°C° 0,5 mm 0 m/s 732 mmHg 94%
    01:00 +22°C° 0,5 mm 0 m/s 732 mmHg 95%
    02:00 +22°C° 0,8 mm 0 m/s 732 mmHg 96%
    03:00 +22°C° 0,8 mm 0 m/s 732 mmHg 96%
    04:00 +22°C° 0,8 mm 0 m/s 732 mmHg 96%
    05:00 +22°C° 0,4 mm 0 m/s 732 mmHg 95%
    06:00 +22°C° 0,4 mm 0 m/s 733 mmHg 94%
    07:00 +23°C° 0,4 mm 0 m/s 733 mmHg 93%
    08:00 +26°C° 0,8 mm 1 m/s 733 mmHg 89%
    09:00 +27°C° 0,8 mm 1 m/s 734 mmHg 86%
    10:00 +28°C° 0,8 mm 2 m/s 734 mmHg 82%
    11:00 +29°C° 0,6 mm 2 m/s 733 mmHg 76%
    12:00 +30°C° 0,6 mm 1 m/s 733 mmHg 71%
    13:00 +31°C° 0,6 mm 1 m/s 732 mmHg 65%
    14:00 +30°C° 0,6 mm 1 m/s 732 mmHg 70%
    15:00 +29°C° 0,6 mm 1 m/s 731 mmHg 75%
    16:00 +28°C° 0,6 mm 1 m/s 731 mmHg 80%
    17:00 +27°C° 0,3 mm 1 m/s 731 mmHg 85%
    18:00 +26°C° 0,3 mm 1 m/s 731 mmHg 90%
    19:00 +25°C° 0,3 mm 1 m/s 731 mmHg 95%
    20:00 +25°C° 0 mm 1 m/s 732 mmHg 95%
    21:00 +25°C° 0 mm 1 m/s 732 mmHg 96%
    22:00 +24°C° 0 mm 1 m/s 733 mmHg 96%
    23:00 +24°C° 0,1 mm 1 m/s 733 mmHg 97%

    Après-demain, 22 Août, Mercredi

    Heure Température Précipitation Vent Pression Humidité
    00:00 +22°C° 0,1 mm 0 m/s 733 mmHg 97%
    01:00 +22°C° 0,1 mm 0 m/s 732 mmHg 97%
    02:00 +22°C° 0,1 mm 0 m/s 732 mmHg 97%
    03:00 +22°C° 0,1 mm 0 m/s 732 mmHg 97%
    04:00 +21°C° 0,1 mm 0 m/s 732 mmHg 97%
    05:00 +22°C° 0,1 mm 0 m/s 732 mmHg 96%
    06:00 +24°C° 0,1 mm 1 m/s 732 mmHg 95%
    07:00 +24°C° 0,1 mm 1 m/s 733 mmHg 94%
    08:00 +26°C° 0 mm 1 m/s 733 mmHg 85%
    09:00 +28°C° 0 mm 2 m/s 734 mmHg 75%
    10:00 +30°C° 0 mm 2 m/s 734 mmHg 66%
    11:00 +31°C° 0 mm 2 m/s 733 mmHg 62%
    12:00 +31°C° 0 mm 2 m/s 732 mmHg 59%
    13:00 +32°C° 0 mm 1 m/s 732 mmHg 55%
    14:00 +32°C° 0 mm 1 m/s 731 mmHg 56%
    15:00 +32°C° 0 mm 1 m/s 731 mmHg 58%
    16:00 +31°C° 0 mm 1 m/s 730 mmHg 60%
    17:00 +30°C° 0,1 mm 1 m/s 730 mmHg 66%
    18:00 +27°C° 0,1 mm 0 m/s 731 mmHg 72%
    19:00 +25°C° 0,1 mm 0 m/s 732 mmHg 78%
    20:00 +25°C° 0,5 mm 0 m/s 732 mmHg 81%
    21:00 +24°C° 0,5 mm 0 m/s 733 mmHg 85%
    22:00 +23°C° 0,5 mm 0 m/s 733 mmHg 89%
    23:00 +23°C° 1 mm 0 m/s 733 mmHg 91%

    23 Août, Jeudi

    Heure Température Précipitation Vent Pression Humidité
    00:00 +22°C° 1 mm 0 m/s 732 mmHg 92%
    01:00 +24°C° 1 mm 1 m/s 732 mmHg 94%
    02:00 +24°C° 0,7 mm 1 m/s 732 mmHg 95%
    03:00 +24°C° 0,7 mm 1 m/s 732 mmHg 96%
    04:00 +23°C° 0,7 mm 1 m/s 732 mmHg 97%
    05:00 +24°C° 0,3 mm 1 m/s 732 mmHg 96%
    06:00 +24°C° 0,3 mm 1 m/s 733 mmHg 95%
    07:00 +24°C° 0,3 mm 1 m/s 733 mmHg 94%
    08:00 +26°C° 0,8 mm 1 m/s 733 mmHg 90%
    09:00 +27°C° 0,8 mm 1 m/s 733 mmHg 86%
    10:00 +28°C° 0,8 mm 2 m/s 733 mmHg 82%
    11:00 +29°C° 1,1 mm 1 m/s 733 mmHg 78%
    12:00 +29°C° 1,1 mm 1 m/s 732 mmHg 75%
    13:00 +30°C° 1,1 mm 1 m/s 731 mmHg 71%
    14:00 +30°C° 0,7 mm 1 m/s 730 mmHg 71%
    15:00 +30°C° 0,7 mm 1 m/s 730 mmHg 70%
    16:00 +30°C° 0,7 mm 1 m/s 730 mmHg 70%
    17:00 +29°C° 0,1 mm 1 m/s 730 mmHg 76%
    18:00 +25°C° 0,1 mm 0 m/s 731 mmHg 82%
    19:00 +23°C° 0,1 mm 0 m/s 732 mmHg 89%
    20:00 +23°C° 0,7 mm 0 m/s 732 mmHg 90%
    21:00 +23°C° 0,7 mm 0 m/s 733 mmHg 91%
    22:00 +23°C° 0,7 mm 0 m/s 733 mmHg 91%
    23:00 +22°C° 0,1 mm 0 m/s 733 mmHg 92%

    24 Août, Vendredi

    Heure Température Précipitation Vent Pression Humidité
    00:00 +22°C° 0,1 mm 0 m/s 732 mmHg 93%
    01:00 +22°C° 0,1 mm 0 m/s 732 mmHg 93%
    02:00 +22°C° 0,3 mm 0 m/s 732 mmHg 94%
    03:00 +22°C° 0,3 mm 0 m/s 732 mmHg 94%
    04:00 +22°C° 0,3 mm 0 m/s 732 mmHg 95%
    05:00 +22°C° 0,3 mm 0 m/s 732 mmHg 94%
    06:00 +22°C° 0,3 mm 0 m/s 732 mmHg 94%
    07:00 +22°C° 0,3 mm 0 m/s 733 mmHg 94%
    08:00 +25°C° 0,7 mm 1 m/s 733 mmHg 92%
    09:00 +26°C° 0,7 mm 1 m/s 733 mmHg 90%
    10:00 +26°C° 0,7 mm 1 m/s 734 mmHg 89%
    11:00 +27°C° 0,6 mm 1 m/s 733 mmHg 86%
    12:00 +27°C° 0,6 mm 1 m/s 732 mmHg 83%
    13:00 +28°C° 0,6 mm 1 m/s 731 mmHg 80%
    14:00 +28°C° 0,2 mm 1 m/s 731 mmHg 78%
    15:00 +28°C° 0,2 mm 1 m/s 731 mmHg 76%
    16:00 +29°C° 0,2 mm 1 m/s 730 mmHg 75%
    17:00 +27°C° 0 mm 1 m/s 731 mmHg 81%
    18:00 +26°C° 0 mm 1 m/s 731 mmHg 87%
    19:00 +25°C° 0 mm 1 m/s 731 mmHg 94%
    20:00 +23°C° 0,1 mm 0 m/s 732 mmHg 95%
    21:00 +22°C° 0,1 mm 0 m/s 732 mmHg 96%
    22:00 +22°C° 0,1 mm 0 m/s 733 mmHg 97%
    23:00 +22°C° 0 mm 0 m/s 732 mmHg 97%

    25 Août, Samedi

    Heure Température Précipitation Vent Pression Humidité
    00:00 +22°C° 0 mm 0 m/s 732 mmHg 97%
    01:00 +22°C° 0 mm 0 m/s 732 mmHg 97%
    02:00 +22°C° 0 mm 0 m/s 732 mmHg 97%
    03:00 +22°C° 0 mm 0 m/s 731 mmHg 97%
    04:00 +22°C° 0 mm 0 m/s 731 mmHg 97%
    05:00 +22°C° 0 mm 0 m/s 732 mmHg 96%
    06:00 +22°C° 0 mm 0 m/s 733 mmHg 94%
    07:00 +23°C° 0 mm 0 m/s 733 mmHg 93%
    08:00 +27°C° 0 mm 1 m/s 733 mmHg 81%
    09:00 +29°C° 0 mm 1 m/s 733 mmHg 69%
    10:00 +32°C° 0 mm 1 m/s 734 mmHg 57%
    11:00 +34°C° 0 mm 1 m/s 733 mmHg 50%
    12:00 +34°C° 0 mm 0 m/s 732 mmHg 43%
    13:00 +37°C° 0 mm 0 m/s 731 mmHg 36%
    14:00 +35°C° 0 mm 0 m/s 730 mmHg 41%
    15:00 +35°C° 0 mm 1 m/s 730 mmHg 45%
    16:00 +33°C° 0 mm 1 m/s 729 mmHg 50%
    17:00 +31°C° 0 mm 1 m/s 730 mmHg 56%
    18:00 +30°C° 0 mm 1 m/s 730 mmHg 62%
    19:00 +28°C° 0 mm 1 m/s 731 mmHg 68%
    20:00 +27°C° 0,6 mm 1 m/s 731 mmHg 76%
    21:00 +24°C° 0,6 mm 0 m/s 731 mmHg 84%
    22:00 +22°C° 0,6 mm 0 m/s 732 mmHg 92%
    23:00 +22°C° 0,7 mm 0 m/s 732 mmHg 94%
    Voir plus